| time (UTC) | temp F | wind direction | speed MPH | gust MPH | rain 1hr in | rain 24hr in | rain mn in | humidity % | barometer mb |
| 20260504014819 | 63 | 215 | 5.0 | 10.0 | 0.00 | 0.00 | 0.00 | 74 | -0.1 |
| 20260504013837 | 63 | 246 | 5.0 | 10.0 | 0.00 | 0.00 | 0.00 | 73 | -0.1 |
| 20260504012831 | 63 | 234 | 4.0 | 10.0 | 0.00 | 0.00 | 0.00 | 74 | -0.1 |
| 20260504010837 | 63 | 262 | 5.0 | 10.0 | 0.00 | 0.00 | 0.00 | 72 | -0.1 |
| 20260504010323 | 63 | 236 | 5.0 | 10.0 | 0.00 | 0.00 | 0.00 | 73 | -0.1 |
| 20260504005829 | 63 | 294 | 5.0 | 10.0 | 0.00 | 0.00 | 0.00 | 73 | -0.1 |
| 20260504005318 | 63 | 194 | 4.0 | 12.0 | 0.00 | 0.00 | 0.00 | 73 | -0.1 |
| 20260504004324 | 63 | 264 | 5.0 | 13.0 | 0.00 | 0.00 | 0.00 | 72 | -0.1 |
| 20260504003830 | 64 | 304 | 7.0 | 13.0 | 0.00 | 0.00 | 0.00 | 72 | -0.1 |
| 20260504003335 | 64 | 241 | 5.0 | 12.0 | 0.00 | 0.00 | 0.00 | 71 | -0.1 |
| 20260504002329 | 64 | 272 | 6.0 | 14.0 | 0.00 | 0.00 | 0.00 | 72 | -0.1 |
| 20260504001318 | 64 | 251 | 6.0 | 13.0 | 0.00 | 0.00 | 0.00 | 71 | -0.1 |
| 20260504000825 | 64 | 255 | 7.0 | 13.0 | 0.00 | 0.00 | 0.00 | 70 | -0.1 |
| 20260503235837 | 65 | 242 | 4.0 | 12.0 | 0.00 | 0.00 | 0.00 | 69 | -0.1 |
| 20260503234837 | 65 | 265 | 5.0 | 12.0 | 0.00 | 0.00 | 0.00 | 70 | -0.1 |
| 20260503234323 | 65 | 282 | 9.0 | 13.0 | 0.00 | 0.00 | 0.00 | 68 | -0.1 |
| 20260503233320 | 66 | 268 | 4.0 | 10.0 | 0.00 | 0.00 | 0.00 | 69 | -0.1 |
| 20260503232334 | 66 | 259 | 4.0 | 12.0 | 0.00 | 0.00 | 0.00 | 67 | -0.1 |
| 20260503231834 | 67 | 263 | 6.0 | 15.0 | 0.00 | 0.00 | 0.00 | 66 | -0.1 |
| 20260503231319 | 68 | 323 | 9.0 | 15.0 | 0.00 | 0.00 | 0.00 | 63 | -0.1 |
| 20260503230334 | 69 | 325 | 6.0 | 14.0 | 0.00 | 0.00 | 0.00 | 61 | -0.1 |
| 20260503225838 | 69 | 266 | 6.0 | 13.0 | 0.00 | 0.00 | 0.00 | 61 | -0.1 |
| 20260503225324 | 69 | 226 | 8.0 | 13.0 | 0.00 | 0.00 | 0.00 | 62 | -0.1 |
| 20260503224819 | 69 | 219 | 5.0 | 12.0 | 0.00 | 0.00 | 0.00 | 63 | -0.1 |
| 20260503222828 | 69 | 231 | 2.0 | 13.0 | 0.00 | 0.00 | 0.00 | 65 | -0.1 |
| 20260503221819 | 70 | 281 | 6.0 | 13.0 | 0.00 | 0.00 | 0.00 | 61 | -0.1 |
| 20260503220833 | 70 | 276 | 6.0 | 13.0 | 0.00 | 0.00 | 0.00 | 62 | -0.1 |
| 20260503220338 | 70 | 259 | 5.0 | 13.0 | 0.00 | 0.00 | 0.00 | 65 | -0.1 |
| 20260503215328 | 68 | 238 | 4.0 | 11.0 | 0.00 | 0.00 | 0.00 | 65 | -0.1 |
| 20260503214819 | 68 | 279 | 2.0 | 13.0 | 0.00 | 0.00 | 0.00 | 65 | -0.1 |
| 20260503214326 | 68 | 301 | 7.0 | 13.0 | 0.00 | 0.00 | 0.00 | 62 | -0.1 |
| 20260503213832 | 68 | 297 | 4.0 | 13.0 | 0.00 | 0.00 | 0.00 | 66 | -0.1 |
| 20260503213336 | 67 | 243 | 5.0 | 14.0 | 0.00 | 0.00 | 0.00 | 65 | -0.1 |
| 20260503212823 | 67 | 295 | 5.0 | 14.0 | 0.00 | 0.00 | 0.00 | 65 | -0.1 |
| 20260503211832 | 67 | 299 | 7.0 | 11.0 | 0.00 | 0.00 | 0.00 | 65 | -0.1 |
| 20260503210829 | 66 | 331 | 7.0 | 13.0 | 0.00 | 0.00 | 0.00 | 71 | -0.1 |
| 20260503205329 | 66 | 290 | 5.0 | 13.0 | 0.00 | 0.00 | 0.00 | 73 | -0.1 |
| 20260503203320 | 65 | 282 | 6.0 | 13.0 | 0.00 | 0.00 | 0.00 | 75 | -0.1 |
| 20260503202826 | 65 | 254 | 8.0 | 14.0 | 0.00 | 0.00 | 0.00 | 74 | -0.1 |
| 20260503202331 | 65 | 273 | 9.0 | 14.0 | 0.00 | 0.00 | 0.00 | 73 | -0.1 |
| 20260503201337 | 65 | 265 | 3.0 | 11.0 | 0.00 | 0.00 | 0.00 | 74 | -0.1 |
| 20260503195327 | 66 | 298 | 7.0 | 12.0 | 0.00 | 0.00 | 0.00 | 73 | -0.1 |
| 20260503194823 | 66 | 254 | 5.0 | 14.0 | 0.00 | 0.00 | 0.00 | 74 | -0.1 |
| 20260503194329 | 66 | 284 | 5.0 | 14.0 | 0.00 | 0.00 | 0.00 | 73 | -0.1 |
| 20260503193817 | 66 | 273 | 6.0 | 13.0 | 0.00 | 0.00 | 0.00 | 75 | -0.1 |
| 20260503193324 | 66 | 302 | 5.0 | 12.0 | 0.00 | 0.00 | 0.00 | 74 | -0.1 |
| 20260503192829 | 66 | 274 | 7.0 | 12.0 | 0.00 | 0.00 | 0.00 | 75 | -0.1 |
| 20260503192336 | 65 | 251 | 4.0 | 12.0 | 0.00 | 0.00 | 0.00 | 75 | -0.1 |
| 20260503190831 | 65 | 278 | 9.0 | 14.0 | 0.00 | 0.00 | 0.00 | 75 | -0.1 |
| 20260503190320 | 65 | 299 | 8.0 | 12.0 | 0.00 | 0.00 | 0.00 | 76 | -0.1 |
| 20260503185337 | 64 | 261 | 5.0 | 15.0 | 0.00 | 0.00 | 0.00 | 79 | -0.1 |
| 20260503184320 | 64 | 292 | 4.0 | 14.0 | 0.00 | 0.00 | 0.00 | 75 | -0.1 |
| 20260503183826 | 64 | 245 | 5.0 | 11.0 | 0.00 | 0.00 | 0.00 | 76 | -0.1 |
| 20260503183330 | 64 | 299 | 7.0 | 11.0 | 0.00 | 0.00 | 0.00 | 77 | -0.1 |
| 20260503182834 | 64 | 239 | 1.0 | 12.0 | 0.00 | 0.00 | 0.00 | 77 | -0.1 |
| 20260503181817 | 64 | 301 | 8.0 | 12.0 | 0.00 | 0.00 | 0.00 | 78 | -0.1 |
| 20260503181322 | 65 | 303 | 9.0 | 12.0 | 0.00 | 0.00 | 0.00 | 77 | -0.1 |
| 20260503180824 | 65 | 291 | 7.0 | 12.0 | 0.00 | 0.00 | 0.00 | 79 | -0.1 |
| 20260503180324 | 64 | 281 | 3.0 | 9.0 | 0.00 | 0.00 | 0.00 | 80 | -0.1 |
| 20260503175330 | 64 | 290 | 4.0 | 11.0 | 0.00 | 0.00 | 0.00 | 79 | -0.1 |
| 20260503174824 | 64 | 290 | 5.0 | 12.0 | 0.00 | 0.00 | 0.00 | 79 | -0.1 |
| 20260503170323 | 65 | 274 | 3.0 | 7.0 | 0.00 | 0.00 | 0.00 | 82 | -0.1 |
| 20260503150333 | 61 | 0.0 | 0.0 | 0.00 | 0.00 | 0.00 | 86 | -0.1 | |
| 20260503130838 | 60 | 0.0 | 0.0 | 0.00 | 0.00 | 0.00 | 90 | -0.1 | |
| 20260503080823 | 60 | 0.0 | 0.0 | 0.00 | 0.00 | 0.00 | 91 | -0.1 | |
| 20260503080333 | 60 | 0.0 | 0.0 | 0.00 | 0.00 | 0.00 | 91 | -0.1 | |
| 20260503072341 | 60 | 0.0 | 0.0 | 0.00 | 0.00 | 0.00 | 91 | -0.1 | |
| 20260503071842 | 60 | 0.0 | 0.0 | 0.00 | 0.00 | 0.00 | 91 | -0.1 | |
| 20260503060328 | 61 | 0.0 | 0.0 | 0.00 | 0.00 | 0.00 | 92 | -0.1 | |
| 20260503054834 | 61 | 0.0 | 0.0 | 0.00 | 0.00 | 0.00 | 92 | -0.1 | |
| 20260503053833 | 61 | 0.0 | 0.0 | 0.00 | 0.00 | 0.00 | 92 | -0.1 | |
| 20260503053338 | 61 | 0.0 | 0.0 | 0.00 | 0.00 | 0.00 | 92 | -0.1 | |
| 20260503052823 | 61 | 0.0 | 0.0 | 0.00 | 0.00 | 0.00 | 92 | -0.1 | |
| 20260503052331 | 61 | 0.0 | 0.0 | 0.00 | 0.00 | 0.00 | 92 | -0.1 | |
| 20260503051335 | 61 | 0.0 | 0.0 | 0.00 | 0.00 | 0.00 | 91 | -0.1 | |
| 20260503045335 | 61 | 0.0 | 0.0 | 0.00 | 0.00 | 0.00 | 91 | -0.1 | |
| 20260503044330 | 60 | 0.0 | 0.0 | 0.00 | 0.00 | 0.00 | 91 | -0.1 | |
| 20260503043836 | 60 | 0.0 | 0.0 | 0.00 | 0.00 | 0.00 | 91 | -0.1 | |
| 20260503042829 | 61 | 0.0 | 0.0 | 0.00 | 0.00 | 0.00 | 91 | -0.1 | |
| 20260503042334 | 61 | 0.0 | 0.0 | 0.00 | 0.00 | 0.00 | 91 | -0.1 | |
| 20260503041837 | 61 | 0.0 | 0.0 | 0.00 | 0.00 | 0.00 | 91 | -0.1 | |
| 20260503040342 | 61 | 0.0 | 0.0 | 0.00 | 0.00 | 0.00 | 91 | -0.1 | |
| 20260503035843 | 61 | 0.0 | 0.0 | 0.00 | 0.00 | 0.00 | 91 | -0.1 | |
| 20260503035345 | 61 | 0.0 | 0.0 | 0.00 | 0.00 | 0.00 | 91 | -0.1 | |
| 20260503034836 | 61 | 0.0 | 0.0 | 0.00 | 0.00 | 0.00 | 90 | -0.1 | |
| 20260503034340 | 61 | 0.0 | 0.0 | 0.00 | 0.00 | 0.00 | 90 | -0.1 | |
| 20260503032336 | 61 | 0.0 | 0.0 | 0.00 | 0.00 | 0.00 | 90 | -0.1 | |
| 20260503031332 | 61 | 0.0 | 0.0 | 0.00 | 0.00 | 0.00 | 89 | -0.1 | |
| 20260503022337 | 61 | 0.0 | 0.0 | 0.00 | 0.00 | 0.00 | 88 | -0.1 |